Search your local weather  

 

Hazardous Weather Conditions

No active alerts for PHILADELPHIA, PENNSYLVANIA

Current Conditions: PHILADELPHIA, PENNSYLVANIA

Fair


61.0 F

Last Updated on Apr 5 2020, 9:54 pm EDT
Humidity: 58%
Wind Speed: SW 6.9 mph
Barometer 30.01 in
Dewpoint: 46.0 F
Visibility: 10.00 mi
Precip: --
Heat Index: NA
Wind Chill: 60 F
Current conditions at:

Philadelphia, Northeast Philadelphia Airport, PA (KPNE)

Lat: 40.07889 Lon: -75.01361

Local Radar Image active severe weather and emergency alerts image image weather storm and storm spotter reports image weather observation monitoring service image
Local
Radar
Active
Alerts
Storm Reports Weather
Monitoring

5 Day Forecast for PHILADELPHIA, PENNSYLVANIA (19102)

Sunday

Mostly Cloudy

High 66 °F
Sunday
Night
Chance of Rain
Low 48 °F
Monday

Partly Sunny

High 65 °F
Monday
Night
Slight Chance of Rain
Low 47 °F
Tuesday

Chance of Rain Showers
High 63 °F
Tuesday
Night
Chance of Rain
Low 50 °F
Wednesday

Chance of T-storms

High 69 °F
Wednesday
Night
Partly Cloudy

Low 49 °F
Thursday

Chance of Rain Showers
High 67 °F

Sign-up For Email & Text Message Weather Alert Notification Services


Advertise Here

Observation History for PHILADELPHIA, PENNSYLVANIA


Time Wind
(mph)
Vis
(mi)
Weather Precip (in) Temperature (F) Relative
Humidity
Wind
Chill
(F)
Heat
Index
(F)
Pressure
Air Dwpt altimeter
(in)
sea level
(mb)
9:54 pm EDT SW 6.9 10.00 Fair -- 61.0 46.0 58% 60 NA 30.01 1016.2
8:54 pm EDT SW 5.8 10.00 Fair -- 63.0 45.0 52% 63 NA 30.01 1016.1
7:54 pm EDT SW 6.9 10.00 Fair -- 64.0 45.0 50% NA NA 29.99 1015.6
6:54 pm EDT W 5.8 10.00 Partly Cloudy -- 66.0 45.0 47% NA NA 29.99 1015.6
5:54 pm EDT W 9.2 10.00 Overcast -- 67.0 44.1 44% NA NA 30.00 1015.7
4:54 pm EDT W 8.1 10.00 Overcast -- 69.0 44.1 41% NA NA 29.99 1015.5
3:54 pm EDT SW 8.1 10.00 Overcast -- 68.0 44.1 42% NA NA 30.00 1015.7
2:54 pm EDT SW 9.2 10.00 Overcast -- 69.0 45.0 42% NA NA 30.01 1016.2
1:54 pm EDT SW 8.1 10.00 Mostly Cloudy -- 70.0 45.0 41% NA NA 30.03 1016.8
12:54 pm EDT SW 6.9 10.00 Fair -- 65.0 45.0 49% NA NA 30.05 1017.6
11:54 am EDT 5.8 10.00 Overcast -- 63.0 46.0 54% 63 NA 30.07 1018.2
10:54 am EDT W 9.2 10.00 Overcast -- 61.0 46.0 58% 60 NA 30.08 1018.6
9:54 am EDT W 6.9 10.00 Overcast -- 58.0 46.9 67% 57 NA 30.08 1018.7
8:54 am EDT W 6.9 10.00 Overcast -- 54.0 48.0 80% 52 NA 30.08 1018.6
7:54 am EDT SW 3.5 9.00 Overcast -- 50.0 46.9 89% NA NA 30.08 1018.5
6:54 am EDT N 0.0 8.00 Overcast -- 45.0 42.1 90% NA NA 30.06 1018.0
5:54 am EDT N 0.0 4.00 Fog/Mist -- 42.0 39.9 92% NA NA 30.05 1017.6
4:54 am EDT N 0.0 5.00 Fog/Mist -- 43.0 41.0 93% NA NA 30.05 1017.4
3:54 am EDT N 0.0 5.00 Fog/Mist -- 45.0 42.1 90% NA NA 30.05 1017.5
2:54 am EDT SW 3.5 9.00 A Few Clouds -- 46.0 43.0 89% NA NA 30.05 1017.6
1:54 am EDT N 0.0 10.00 Fair -- 46.0 43.0 89% NA NA 30.06 1017.8
12:54 am EDT N 0.0 10.00 Fair -- 47.0 43.0 86% NA NA 30.06 1017.8
11:54 pm EDT N 0.0 10.00 Fair -- 50.0 44.1 80% NA NA 30.06 1017.8
10:54 pm EDT N 0.0 10.00 Fair -- 50.0 44.1 80% NA NA 30.05 1017.7

Regional Weather Observation

Pottstown, Pottstown Limerick Airport, PA (KPTW)

Fair
57.0 F

Doylestown, Doylestown Airport, PA (KDYL)

Fair
58.0 F

Quakertown Airport, PA (KUKT)

Fair
52.0 F

Allentown Queen City Municipal Airport, PA (KXLL)

Mostly Cloudy
55.0 F

Reading, Reading Regional Airport, PA (KRDG)

Mostly Cloudy
58.0 F

Philadelphia, Philadelphia International Airport, PA (KPHL)

Partly Cloudy
56.0 F

Advertise Here

Advertise Here